Preview of NWS' New Version of Forecast
This preview is not operational and should not be used for support decisions.

Regional Weather Roundup (RWR)

Issued by National Weather Service (NWS)

                            
000
ASUS43 KMKX 210010
RWRWI 

WISCONSIN REGIONAL WEATHER ROUNDUP
NATIONAL WEATHER SERVICE MILWAUKEE/SULLIVAN WI
600 PM CST WED FEB 20 2019

NOTE: "FAIR" INDICATES FEW OR NO CLOUDS BELOW 12,000 FEET WITH NO
SIGNIFICANT WEATHER AND/OR OBSTRUCTIONS TO VISIBILITY.

WIZ001-002-006>008-014>016-023>028-210100-
NORTHWEST WISCONSIN
  
CITY           SKY/WX    TMP DP  RH WIND       PRES   REMARKS
SUPERIOR ARPT  LGT SNOW  23  22  96 NE12      29.63S WCI  12          
6HR MIN TEMP:  20; 6HR MAX TEMP:  23; 6HR PCP:  0.04;                

ASHLAND        CLOUDY    24  22  91 NE8       29.61F FOG     WCI  15  
6HR MIN TEMP:  20; 6HR MAX TEMP:  24; 6HR PCP:  0.13;                

HAYWARD        LGT SNOW  24  21  88 NE5       29.56S FOG     WCI  18  
6HR MIN TEMP:  24; 6HR MAX TEMP:  25; 6HR PCP:  0.23;                

SIREN          LGT SNOW  24  22  93 N5        29.59R VSB 1   WCI  18  
6HR MIN TEMP:  23; 6HR MAX TEMP:  27;                                

CUMBERLAND     LGT SNOW  25  23  93 SE5       29.56R WCI  19          
RICE LAKE      LGT SNOW  26  12  55 S5        29.59R WCI  21          
6HR MIN TEMP:  24; 6HR MAX TEMP:  27; 6HR PCP:  0.09;                

CHETEK         LGT SNOW  26  24  93 CALM      29.58R                  
6HR MIN TEMP:  24; 6HR MAX TEMP:  27; 6HR PCP:  0.09;                

LADYSMITH      LGT SNOW  27  25  93 CALM      29.58S                  
6HR MIN TEMP:  26; 6HR MAX TEMP:  28; 6HR PCP:  0.05;                

EAU CLAIRE     CLOUDY    27  25  92 S7        29.58R FOG     WCI  19  
6HR MIN TEMP:  25; 6HR MAX TEMP:  28; 6HR PCP:  0.01;                

MENOMONIE      LGT SNOW  25  22  89 SE5       29.59R WCI  19          
6HR MIN TEMP:  22; 6HR MAX TEMP:  25; 6HR PCP:  0.06;                

NEW RICHMOND   LGT SNOW  27  23  87 S5        29.58R WCI  21          
6HR MIN TEMP:  25; 6HR MAX TEMP:  28;                                

OSCEOLA        CLOUDY    26  25  95 CALM      29.61R                  
6HR MIN TEMP:  25; 6HR MAX TEMP:  28;                                

$$
 
WIZ003>005-009-010-017-018-210100-
NORTH CENTRAL WISCONSIN
  
CITY           SKY/WX    TMP DP  RH WIND       PRES   REMARKS
MANITOWISH WTR NOT AVBL                                               
ARBOR VITAE    LGT SNOW  24  22  91 SE3       29.55F                  
6HR MIN TEMP:  23; 6HR MAX TEMP:  25; 6HR PCP:  0.10;                

WOODRUFF       LGT SNOW  24  22  91 SE3       29.55F                  
6HR MIN TEMP:  23; 6HR MAX TEMP:  25; 6HR PCP:  0.10;                

RHINELANDER    LGT SNOW  25  20  81 W6        29.55F WCI  18          
6HR MIN TEMP:  24; 6HR MAX TEMP:  26; 6HR PCP:  0.09;                

EAGLE RIVER    LGT SNOW  23  19  85 SE7       29.55F WCI  14          
6HR MIN TEMP:  22; 6HR MAX TEMP:  24;                                

LAND O LAKES   LGT SNOW  23  20  89 SE10G17   29.58F VSB 1   WCI  12  
6HR MIN TEMP:  23; 6HR MAX TEMP:  24;                                

PHILLIPS       LGT SNOW  24  23  97 SE5       29.54F WCI  18          
6HR MIN TEMP:  22; 6HR MAX TEMP:  25; 6HR PCP:  0.06;                

TOMAHAWK       LGT SNOW  24  21  91 CALM      29.56F                  
6HR MIN TEMP:  23; 6HR MAX TEMP:  25;                                

MEDFORD        LGT SNOW  24  22  92 SE3       29.55S                  
6HR MIN TEMP:  23; 6HR MAX TEMP:  25; 6HR PCP:  0.03;                

MERRILL        LGT SNOW  25  24  98 CALM      29.57F                  
6HR MIN TEMP:  24; 6HR MAX TEMP:  26; 6HR PCP:  0.01;                

$$
 
WIZ029-030-035-036-043>047-210100-
CENTRAL WISCONSIN
  
CITY           SKY/WX    TMP DP  RH WIND       PRES   REMARKS
WAUSAU         LGT SNOW  25  22  88 SE6       29.56R FOG     WCI  18  
6HR MIN TEMP:  23; 6HR MAX TEMP:  26; 6HR PCP:  0.06;                

MOSINEE        LGT SNOW  25  25 100 W6        29.59R WCI  18          
MARSHFIELD     CLOUDY    25  24  96 S3        29.56R                  
6HR MIN TEMP:  24; 6HR MAX TEMP:  26; 6HR PCP:  0.01;                

STEVENS POINT  MIX PCPN  25  25 100 CALM      29.58S                  
6HR MIN TEMP:  24; 6HR MAX TEMP:  25; 6HR PCP:  0.01;                

WAUPACA        LGT SNOW  29  27  90 CALM      29.59S                  
6HR MIN TEMP:  29; 6HR MAX TEMP:  30;                                

WAUTOMA        CLOUDY    28  26  92 CALM      29.61R                  
6HR MIN TEMP:  27; 6HR MAX TEMP:  29; 6HR PCP:  0.02;                

WISC RAPIDS    CLOUDY    27  22  81 CALM      29.59S HAZE             
6HR MIN TEMP:  26; 6HR MAX TEMP:  27; 6HR PCP:  0.03;                

CAMP DOUGLAS   CLOUDY    32  30  93 SW12G17   29.60R WCI  23          
                                      6HR PCP:  0.09;                

$$
 
WIZ011>013-019>022-031-037>040-048>050-210100-
NORTHEAST WISCONSIN
  
CITY           SKY/WX    TMP DP  RH WIND       PRES   REMARKS
ANTIGO         LGT SNOW  23  22  96 E9        29.56F WCI  13          
6HR MIN TEMP:  22; 6HR MAX TEMP:  24; 6HR PCP:  0.80;                

SHAWANO        LGT SNOW  29  26  86 NE7       29.58F WCI  22          
6HR MIN TEMP:  29; 6HR MAX TEMP:  31; 6HR PCP:  0.03;                

OCONTO         CLOUDY    29  28  96 E3        29.60F                  
6HR MIN TEMP:  27; 6HR MAX TEMP:  29; 6HR PCP:  0.08;                

STURGEON BAY   LGT SNOW  31  30  96 SE12      29.61F FOG     WCI  22  
6HR MIN TEMP:  28; 6HR MAX TEMP:  31; 6HR PCP:  0.06;                

GREEN BAY      LGT SNOW  33  31  92 S3        29.60F FOG              
6HR MIN TEMP:  30; 6HR MAX TEMP:  33; 6HR PCP:  0.15;                

MANITOWOC      LGT RAIN  33  32  96 S10       29.61F WCI  25          
6HR MIN TEMP:  28; 6HR MAX TEMP:  33; 6HR PCP:  0.03;                

APPLETON       LGT SNOW  30  30 100 S6        29.57F WCI  24          
CLINTONVILLE   LGT SNOW  28  26  91 CALM      29.59S                  
6HR MIN TEMP:  28; 6HR MAX TEMP:  28; 6HR PCP:  0.01;                

OSHKOSH        CLOUDY    33  30  88 SW10      29.59S WCI  25          
6HR MIN TEMP:  27; 6HR MAX TEMP:  33; 6HR PCP:  0.02;                

$$
 
WIZ032>034-041-042-053>061-210100-
SOUTHWEST WISCONSIN
  
CITY           SKY/WX    TMP DP  RH WIND       PRES   REMARKS
LA CROSSE      LGT RAIN  33  25  72 SW18      29.63R WCI  22          
6HR MIN TEMP:  30; 6HR MAX TEMP:  33; 6HR PCP:  0.06;                

SPARTA         CLOUDY    31  27  85 SW8       29.62R WCI  24          
6HR MIN TEMP:  28; 6HR MAX TEMP:  31;                                

VIROQUA        CLOUDY    30  27  89 SW17G24   29.61R WCI  18          
6HR MIN TEMP:  30; 6HR MAX TEMP:  32;                                

BOSCOBEL       LGT RAIN  34  26  72 SW17G26   29.68R WCI  23          
6HR MIN TEMP:  32; 6HR MAX TEMP:  35; 6HR PCP:  0.01;                

PRAIRIE DU CHI CLOUDY    32  25  74 SW10      29.68R WCI  24          
6HR MIN TEMP:  31; 6HR MAX TEMP:  34; 6HR PCP:  0.13;                

PLATTEVILLE    CLOUDY    33  31  94 SW15      29.69R WCI  22          
6HR MIN TEMP:  32; 6HR MAX TEMP:  34;                                

$$

WIZ056-057-062-063-064-067-068-210100-
SOUTH CENTRAL WISCONSIN
  
CITY           SKY/WX    TMP DP  RH WIND       PRES   REMARKS
REEDSBURG      CLOUDY    32  29  88 SW12      29.62R WCI  23          
6HR MIN TEMP:  28; 6HR MAX TEMP:  33; 6HR PCP:  0.08;                

BARABOO/DELLS  CLOUDY    32  28  84 SW15G21   29.61R WCI  22          
6HR MIN TEMP:  28; 6HR MAX TEMP:  33;                                

LONE ROCK      CLOUDY    34  28  79 SW15G23   29.66R WCI  24          
6HR MIN TEMP:  29; 6HR MAX TEMP:  35; 6HR PCP:  0.01;                

MINERAL POINT  CLOUDY    34  32  93 W17       29.66R WCI  23          
MADISON        CLOUDY    34  28  79 SW7       29.65R WCI  28          
6HR MIN TEMP:  31; 6HR MAX TEMP:  34; 6HR PCP:  0.07;                

MIDDLETON      CLOUDY    35  31  85 SW15G22   29.64R WCI  25          
6HR MIN TEMP:  32; 6HR MAX TEMP:  36;                                

WATERTOWN      CLOUDY    33  33  99 SW14      29.64R WCI  23          
6HR MIN TEMP:  30; 6HR MAX TEMP:  33; 6HR PCP:  0.02;                

MONROE         CLOUDY    33  31  92 MISG      29.66R                  
6HR MIN TEMP:  32; 6HR MAX TEMP:  33;                                

JANESVILLE     CLOUDY    36  34  93 SW14G24   29.68R WCI  27          
$$
 
WIZ051-052-058>065-066-070>072-210100-
SOUTHEAST WISCONSIN
  
CITY           SKY/WX    TMP DP  RH WIND       PRES   REMARKS
MILWAUKEE      CLOUDY    36  31  82 SW14      29.65R WCI  27          
6HR MIN TEMP:  32; 6HR MAX TEMP:  36; 6HR PCP:  0.05;                

WAUKESHA       CLOUDY    32  30  93 SW13      29.65R WCI  22          
MILWAUKEE/TIMM CLOUDY    34  30  86 SW12G22   29.65R WCI  25          
RACINE         CLOUDY    35  32  88 SW13G24   29.68R WCI  26          
6HR MIN TEMP:  32; 6HR MAX TEMP:  35; 6HR PCP:  0.05;                

KENOSHA        CLOUDY    36  33  89 SW18      29.67R WCI  26          
6HR MIN TEMP:  33; 6HR MAX TEMP:  36; 6HR PCP:  0.01;                

FOND DU LAC    CLOUDY    34  30  85 SW14      29.60S WCI  25          
6HR MIN TEMP:  29; 6HR MAX TEMP:  34; 6HR PCP:  0.01;                

SHEBOYGAN      CLOUDY    33  31  92 S12       29.61S WCI  24          
6HR MIN TEMP:  28; 6HR MAX TEMP:  33; 6HR PCP:  0.09;                

WEST BEND      CLOUDY    32  32 100 SW13      29.62S WCI  22          
JUNEAU         CLOUDY    32  31  96 SW16      29.64R WCI  21          
6HR MIN TEMP:  28; 6HR MAX TEMP:  32;                                

$$

LSZ147-162-210100-
LAKE SUPERIOR
  
STATION/POSITION TIME  TEMP    WIND        PRES    WAVE
                       AIR SEA DIR/SP/G            HT/PER
                 (UTC) (F)     (DEG/KT/KT) (MB)    (FT/S)
DEVILS ISLAND    0000   26      80/ 22/ 26 1005.1F
SAXON HARBOR     2340   23      50/ 10/ 11 1002.7F
$$
 
LMZ867-665-643>646-210100-
LAKE MICHIGAN
  
STATION/POSITION TIME  TEMP    WIND        PRES    WAVE
                       AIR SEA DIR/SP/G            HT/PER
                 (UTC) (F)     (DEG/KT/KT) (MB)    (FT/S)
CHAMBERS ISLAND  2340